EW4462 Weather Reports


Display with metric or nautical units.
time (UTC)temp
F
wind
direction
speed
MPH
gust
MPH
rain 1hr
in
rain 24hr
in
rain mn
in
humidity
%
barometer
mb
20260903030103 70 101 0.0 0.0 0.00 0.00 0.00 79 1015.0
20260903024000 70 101 0.0 0.0 0.00 0.00 0.00 78 1014.9
20260903023006 71 101 0.0 0.0 0.00 0.00 0.00 78 1014.9
20260903022026 71 101 0.0 0.0 0.00 0.00 0.00 77 1015.0
20260903020955 71 101 0.0 0.0 0.00 0.00 0.00 77 1014.9
20260903020002 72 99 0.0 0.0 0.00 0.00 0.00 76 1015.0
20260903014949 72 95 0.0 0.0 0.00 0.00 0.00 74 1014.9
20260903013931 73 112 0.0 2.0 0.00 0.00 0.00 73 1014.9
20260903012920 73 98 0.0 0.0 0.00 0.00 0.00 72 1014.9
20260903010816 74 95 0.0 0.0 0.00 0.00 0.00 69 1014.9
20260903004653 75 94 0.0 0.0 0.00 0.00 0.00 66 1014.9
20260903003625 77 100 0.0 0.0 0.00 0.00 0.00 63 1014.8
20260903001555 78 116 0.0 0.0 0.00 0.00 0.00 64 1014.9
20260903000600 78 115 0.0 0.0 0.00 0.00 0.00 63 1014.9
20260902235548 79 107 0.0 0.0 0.00 0.00 0.00 63 1014.9
20260902233338 79 105 0.0 0.0 0.00 0.00 0.00 63 1015.2
20260902232345 79 130 0.0 6.0 0.00 0.00 0.00 65 1015.1
20260902231321 79 81 0.0 0.0 0.00 0.00 0.00 63 1015.2
20260902230255 79 84 0.0 0.0 0.00 0.00 0.00 63 1015.2
20260902225228 80 127 0.0 0.0 0.00 0.00 0.00 61 1015.3
20260902224230 79 100 0.0 0.0 0.00 0.00 0.00 61 1015.4
20260902223200 79 117 0.0 0.0 0.00 0.00 0.00 62 1015.5
20260902222151 79 99 0.0 0.0 0.00 0.00 0.00 63 1015.5
20260902221159 79 113 0.0 0.0 0.00 0.00 0.00 62 1015.7
20260902220126 78 85 0.0 0.0 0.00 0.00 0.00 62 1015.6
20260902215055 79 106 0.0 0.0 0.00 0.00 0.00 63 1015.5
20260902214029 78 97 0.0 0.0 0.00 0.00 0.00 63 1015.6
20260902213030 79 111 0.0 0.0 0.00 0.00 0.00 64 1015.7
20260902212037 78 143 0.0 5.0 0.00 0.00 0.00 65 1015.6
20260902211021 78 111 0.0 0.0 0.00 0.00 0.00 65 1015.9
20260902210034 79 117 0.0 0.0 0.00 0.00 0.00 64 1015.9
20260902205014 78 111 0.0 4.0 0.00 0.00 0.00 65 1015.9
20260902203943 78 103 0.0 0.0 0.00 0.00 0.00 66 1016.0
20260902201736 77 121 0.0 3.0 0.00 0.00 0.00 68 1016.2
20260902200742 78 83 0.0 0.0 0.00 0.00 0.00 68 1016.2
20260902195727 77 110 0.0 0.0 0.00 0.00 0.00 68 1016.4
20260902194739 77 111 0.0 0.0 0.00 0.00 0.00 67 1016.4
20260902193730 78 104 0.0 0.0 0.00 0.00 0.00 67 1016.5
20260902192734 78 128 0.0 0.0 0.00 0.00 0.00 68 1016.6
20260902191701 78 96 0.0 0.0 0.00 0.00 0.00 68 1016.6
20260902190649 78 115 0.0 0.0 0.00 0.00 0.00 67 1016.6
20260902185620 78 125 0.0 0.0 0.00 0.00 0.00 68 1016.6
20260902184549 77 113 0.0 6.0 0.00 0.00 0.00 69 1016.8
20260902183544 77 95 0.0 0.0 0.00 0.00 0.00 69 1017.0
20260902182528 77 98 0.0 0.0 0.00 0.00 0.00 69 1017.0
20260902180415 77 110 0.0 0.0 0.00 0.00 0.00 69 1017.2
20260902175416 77 113 0.0 0.0 0.00 0.00 0.00 69 1017.1
20260902174427 78 114 0.0 0.0 0.00 0.00 0.00 67 1017.1
20260902173422 77 96 0.0 0.0 0.00 0.00 0.00 67 1017.0
20260902172355 77 107 0.0 0.0 0.00 0.00 0.00 68 1017.0
20260902170148 76 119 0.0 0.0 0.00 0.00 0.00 68 1016.9
20260902165134 76 101 0.0 0.0 0.00 0.00 0.00 70 1016.9
20260902164125 75 86 0.0 0.0 0.00 0.00 0.00 71 1017.0
20260902163135 75 86 0.0 0.0 0.00 0.00 0.00 72 1016.9
20260902162144 74 0 0.0 0.0 0.00 0.00 0.00 74 1016.9
20260902161122 73 76 0.0 0.0 0.00 0.00 0.00 76 1016.9
20260902160140 73 90 0.0 0.0 0.00 0.00 0.00 77 1016.9
20260902155144 72 90 0.0 0.0 0.00 0.00 0.00 78 1016.8
20260902154111 71 90 0.0 0.0 0.00 0.00 0.00 80 1016.8
20260902151914 70 78 0.0 0.0 0.00 0.00 0.00 83 1016.8
20260902150919 68 99 0.0 0.0 0.00 0.00 0.00 87 1016.8
20260902145914 67 99 0.0 0.0 0.00 0.00 0.00 88 1016.9
20260902144842 66 99 0.0 0.0 0.00 0.00 0.00 91 1016.9
20260902142721 64 99 0.0 0.0 0.00 0.00 0.00 92 1016.8
20260902141722 64 99 0.0 0.0 0.00 0.00 0.00 92 1016.9
20260902140725 64 99 0.0 0.0 0.00 0.00 0.00 92 1016.7
20260902134554 63 99 0.0 0.0 0.00 0.00 0.00 91 1016.4
20260902133600 63 99 0.0 0.0 0.00 0.00 0.00 92 1016.2
20260902132551 63 99 0.0 0.0 0.00 0.00 0.00 93 1016.2
20260902130430 62 99 0.0 0.0 0.00 0.00 0.00 92 1016.0
20260902125456 62 99 0.0 0.0 0.00 0.00 0.00 92 1016.0
20260902124448 62 99 0.0 0.0 0.00 0.00 0.00 91 1016.0
20260902122346 62 99 0.0 0.0 0.00 0.00 0.00 90 1015.9
20260902121409 62 99 0.0 0.0 0.00 0.00 0.00 90 1015.9
20260902120406 62 99 0.0 0.0 0.00 0.00 0.00 91 1015.7
20260902115339 62 99 0.0 0.0 0.00 0.00 0.00 91 1015.9
20260902114346 62 99 0.0 0.0 0.00 0.00 0.00 90 1015.9
20260902113322 63 99 0.0 0.0 0.00 0.00 0.00 90 1015.9
20260902112255 63 99 0.0 0.0 0.00 0.00 0.00 90 1015.9
20260902111312 63 99 0.0 0.0 0.00 0.00 0.00 90 1015.9
20260902110321 63 99 0.0 0.0 0.00 0.00 0.00 90 1015.8
20260902105252 63 99 0.0 0.0 0.00 0.00 0.00 90 1015.9
20260902104310 63 99 0.0 0.0 0.00 0.00 0.00 90 1015.9
20260902103239 63 99 0.0 0.0 0.00 0.00 0.00 90 1016.1
20260902102218 64 99 0.0 0.0 0.00 0.00 0.00 90 1016.1
20260902101206 64 99 0.0 0.0 0.00 0.00 0.00 90 1016.2
20260902100219 64 99 0.0 0.0 0.00 0.00 0.00 89 1016.3
20260902095148 64 99 0.0 0.0 0.00 0.00 0.00 89 1016.3
20260902094211 64 99 0.0 0.0 0.00 0.00 0.00 89 1016.4
20260902093201 64 99 0.0 0.0 0.00 0.00 0.00 89 1016.4
20260902092206 64 99 0.0 0.0 0.00 0.00 0.00 89 1016.4
20260902090120 64 99 0.0 0.0 0.00 0.00 0.00 88 1016.6
20260902085135 65 99 0.0 0.0 0.00 0.00 0.00 88 1016.7
20260902084111 65 99 0.0 0.0 0.00 0.00 0.00 88 1016.7
20260902083049 65 99 0.0 0.0 0.00 0.00 0.00 88 1016.6
20260902082020 65 99 0.0 0.0 0.00 0.00 0.00 88 1016.4
20260902080950 65 99 0.0 0.0 0.00 0.00 0.00 87 1016.5
20260902074830 66 99 0.0 0.0 0.00 0.00 0.00 87 1016.4
20260902073811 66 99 0.0 0.0 0.00 0.00 0.00 87 1016.4
20260902072744 66 99 0.0 0.0 0.00 0.00 0.00 86 1016.3
20260902071754 67 99 0.0 0.0 0.00 0.00 0.00 87 1016.3
20260902070731 67 99 0.0 0.0 0.00 0.00 0.00 87 1016.3
20260902065659 67 99 0.0 0.0 0.00 0.00 0.00 86 1016.3
20260902064637 67 99 0.0 0.0 0.00 0.00 0.00 86 1016.3
20260902063606 67 99 0.0 0.0 0.00 0.00 0.00 86 1016.2
20260902062605 67 99 0.0 0.0 0.00 0.00 0.00 86 1016.2
20260902060419 68 99 0.0 0.0 0.00 0.00 0.00 85 1016.2
20260902055426 68 99 0.0 0.0 0.00 0.00 0.00 84 1016.1
20260902054359 69 99 0.0 0.0 0.00 0.00 0.00 84 1016.0
20260902053422 69 99 0.0 0.0 0.00 0.00 0.00 83 1016.1
20260902052429 69 99 0.0 0.0 0.00 0.00 0.00 83 1016.1
20260902051358 70 99 0.0 0.0 0.00 0.00 0.00 83 1016.2
20260902050407 70 99 0.0 0.0 0.00 0.00 0.00 83 1016.1
20260902045352 70 99 0.0 0.0 0.00 0.00 0.00 84 1016.1
20260902044343 70 99 0.0 0.0 0.00 0.00 0.00 84 1016.0
20260902042225 70 99 0.0 0.0 0.00 0.00 0.00 85 1015.7
20260902041223 70 99 0.0 0.0 0.00 0.00 0.00 85 1015.7
20260902040155 70 99 0.0 0.0 0.00 0.00 0.00 84 1015.4
20260902035159 70 99 0.0 0.0 0.00 0.00 0.00 84 1015.2
20260902034144 70 99 0.0 0.0 0.00 0.00 0.00 84 1015.0
20260902033153 70 99 0.0 0.0 0.00 0.00 0.00 83 1014.8
20260902030942 71 99 0.0 0.0 0.00 0.00 0.00 82 1014.7